Weather History for Chillicothe, MO

Change the Weather History Date:

Sunday, July 28, 2013

  Actual Average (KIRK) Record (KIRK)
Temperature  
Mean Temperature 65 °F 76 °F  
Max Temperature 79 °F 86 °F 100 °F (1931)
Min Temperature 51 °F 65 °F 46 °F (2013)
Degree Days  
Heating Degree Days 0 0  
Month to date heating degree days 0  
Since 1 June heating degree days 16  
Since 1 July heating degree days 0  
Cooling Degree Days 0 11  
Month to date cooling degree days 283  
Year to date cooling degree days 537  
Since 1 June cooling degree days 475  
Growing Degree Days 15 (Base 50)    
Moisture  
Dew Point 51 °F    
Average Humidity 65    
Maximum Humidity 92    
Minimum Humidity 33    
Precipitation  
Precipitation 0.00 in 0.16 in 1.75 in (1967)
Month to date precipitation 4.17  
Year to date precipitation 23.10  
Sea Level Pressure  
Sea Level Pressure 30.04 in    
Wind  
Wind Speed 0 mph (WNW)    
Max Wind Speed 6 mph    
Max Gust Speed -    
T = Trace of Precipitation, MM = Missing Value Source: NWS Daily Summary

Daily Weather History Graph

Daily Weather History Graph

Search for Another Location

Airport:

Trip Planner

Search our weather history database for the weather conditions in past years. The results will help you decide how hot, cold, wet, or windy it might be!

Date:

Astronomy

Jul. 28, 2013 Rise Set
Actual Time 6:09 AM CDT 8:31 PM CDT
Civil Twilight 5:39 AM CDT 9:01 PM CDT
Nautical Twilight 5:01 AM CDT 9:39 PM CDT
Astronomical Twilight 4:19 AM CDT 10:20 PM CDT
Moon 11:54 PM CDT (7/28) 12:51 PM CDT (7/28)
Length of Visible Light 15h 22m
Length of Day
14h 21m
Waning Gibbous, 60% of the Moon is Illuminated
Jul 28
Waning Gibbous
Jul 29
Last Quarter
Aug 6
New
Aug 14
First Quarter
Aug 20
Full

Hourly Weather History & Observations

Time (CDT) Temp. Dew Point Humidity Pressure Visibility Wind Dir Wind Speed Gust Speed Precip Events Conditions
12:52 AM 55.0 °F 52.0 °F 89% 30.04 in - Calm Calm - N/A   Unknown
1:52 AM 54.0 °F 51.1 °F 90% 30.04 in - Calm Calm - N/A   Unknown
2:52 AM 54.0 °F 51.1 °F 90% 30.04 in - Calm Calm - N/A   Unknown
3:52 AM 53.1 °F 50.0 °F 89% 30.03 in - Calm Calm - N/A   Unknown
4:52 AM 52.0 °F 48.9 °F 89% 30.04 in - Calm Calm - N/A   Unknown
5:52 AM 51.1 °F 48.9 °F 92% 30.04 in - Calm Calm - N/A   Unknown
6:52 AM 52.0 °F 48.9 °F 89% 30.05 in - Calm Calm - N/A   Unknown
7:52 AM 60.1 °F 53.1 °F 78% 30.06 in - Calm Calm - N/A   Unknown
8:52 AM 63.0 °F 54.0 °F 72% 30.06 in - Calm Calm - N/A   Unknown
9:52 AM 66.9 °F 55.0 °F 66% 30.06 in - WNW 3.5 mph - N/A   Unknown
10:52 AM 71.1 °F 51.1 °F 49% 30.06 in - Calm Calm - N/A   Unknown
11:52 AM 71.1 °F 46.9 °F 42% 30.05 in - Calm Calm - N/A   Unknown
12:52 PM 73.9 °F 48.9 °F 41% 30.04 in - Variable 3.5 mph - N/A   Unknown
1:52 PM 75.9 °F 48.0 °F 37% 30.03 in - Variable 5.8 mph - N/A   Unknown
2:52 PM 78.1 °F 46.9 °F 33% 30.01 in - Calm Calm - N/A   Unknown
3:52 PM 78.1 °F 48.9 °F 36% 30.02 in - Calm Calm - N/A   Unknown
4:52 PM 78.1 °F 48.0 °F 35% 30.01 in - Calm Calm - N/A   Unknown
5:52 PM 79.0 °F 48.9 °F 35% 30.01 in - Calm Calm - N/A   Unknown
6:52 PM 77.0 °F 55.0 °F 47% 30.01 in - Calm Calm - N/A   Unknown
7:52 PM 73.9 °F 54.0 °F 50% 30.02 in - Calm Calm - N/A   Unknown
8:52 PM 66.0 °F 57.9 °F 75% 30.03 in - Calm Calm - N/A   Unknown
9:52 PM 63.0 °F 55.9 °F 78% 30.05 in - Calm Calm - N/A   Unknown
10:52 PM 61.0 °F 55.0 °F 81% 30.06 in - Calm Calm - N/A   Unknown
11:52 PM 60.1 °F 55.9 °F 86% 30.07 in - Calm Calm - N/A   Unknown